Owosso, MI

7:07 PM EST on February 08, 2016 (GMT -0500)
Owosso

Weather History for KRNP - September, 2013

Change the Weather History Date:

Tuesday, September 10, 2013

  Actual Average (KFNT) Record (KFNT)
Temperature  
Mean Temperature 83 °F 63 °F  
Max Temperature 93 °F 75 °F 96 °F (2013)
Min Temperature 73 °F 52 °F 36 °F (1969)
Degree Days  
Heating Degree Days 0 4  
Month to date heating degree days 27  
Since 1 July heating degree days 71  
Cooling Degree Days 18 2  
Month to date cooling degree days 25  
Year to date cooling degree days 502  
Growing Degree Days 33 (Base 50)    
Moisture  
Dew Point 66 °F    
Average Humidity 59    
Maximum Humidity 90    
Minimum Humidity 32    
Precipitation  
Precipitation 0.00 in 0.13 in 6.04 in (1950)
Month to date precipitation 1.21  
Year to date precipitation 21.77  
Snow  
Snow 0.00 in 0.00 in 0.00 in ()
Month to date snowfall 0.0  
Since 1 July snowfall 0.0  
Since 1 September snowfall 0.0  
Snow Depth -    
Sea Level Pressure  
Sea Level Pressure 29.94 in    
Wind  
Wind Speed 8 mph (SW)    
Max Wind Speed 15 mph    
Max Gust Speed 21 mph    
Visibility 10 miles    
Events Rain    
T = Trace of Precipitation, MM = Missing Value Source: NWS Daily Summary

Daily Weather History Graph

Daily Weather History Graph

Search for Another Location

Airport or City:

Trip Planner

Search our weather history database for the weather conditions in past years. The results will help you decide how hot, cold, wet, or windy it might be!

Date:

Astronomy

Sep. 10, 2013 Rise Set
Actual Time 7:11 AM EDT 7:55 PM EDT
Civil Twilight 6:42 AM EDT 8:23 PM EDT
Nautical Twilight 6:08 AM EDT 8:57 PM EDT
Astronomical Twilight 5:32 AM EDT 9:32 PM EDT
Moon 12:44 PM EDT (9/10) 10:48 PM EDT (9/10)
Length of Visible Light 13h 41m
Length of Day
12h 43m
Waxing Crescent, 28% of the Moon is Illuminated
Sep 10
Waxing Crescent
Sep 12
First Quarter
Sep 19
Full
Sep 26
Last Quarter
Oct 4
New

Hourly Weather History & Observations

Time (EDT) Temp. Heat Index Dew Point Humidity Pressure Visibility Wind Dir Wind Speed Gust Speed Precip Events Conditions
12:15 AM 73.0 °F - 69.8 °F 90% 29.87 in 7.0 mi South 5.8 mph - N/A   Clear
12:35 AM 73.4 °F - 69.8 °F 88% 29.86 in 7.0 mi South 9.2 mph - N/A   Clear
12:54 AM 73.6 °F - 70.0 °F 88% 29.86 in 7.0 mi South 8.1 mph - N/A   Clear
1:15 AM 73.9 °F - 70.0 °F 87% 29.86 in 7.0 mi South 9.2 mph - N/A   Clear
1:35 AM 74.3 °F - 70.2 °F 87% 29.86 in 10.0 mi SSW 8.1 mph - N/A   Clear
1:55 AM 74.7 °F - 70.5 °F 87% 29.86 in 10.0 mi SSW 5.8 mph - N/A   Clear
2:15 AM 76.1 °F - 70.7 °F 83% 29.87 in 10.0 mi SSW 6.9 mph - N/A   Clear
2:35 AM 76.5 °F - 70.9 °F 83% 29.87 in 10.0 mi SW 6.9 mph - N/A   Clear
2:55 AM 76.5 °F - 70.9 °F 83% 29.87 in 10.0 mi SSW 5.8 mph - N/A   Clear
3:15 AM 76.5 °F - 71.1 °F 83% 29.87 in 10.0 mi SW 8.1 mph - N/A   Clear
3:35 AM 77.0 °F - 71.1 °F 82% 29.88 in 10.0 mi SW 5.8 mph - N/A   Clear
3:55 AM 77.2 °F - 71.1 °F 81% 29.88 in 10.0 mi SW 4.6 mph - N/A   Clear
4:15 AM 77.9 °F - 71.1 °F 79% 29.88 in 10.0 mi SSW 6.9 mph - N/A   Clear
4:35 AM 77.9 °F - 71.1 °F 79% 29.89 in 10.0 mi SW 8.1 mph - N/A   Clear
4:55 AM 78.8 °F - 70.9 °F 77% 29.89 in 10.0 mi SW 8.1 mph - N/A   Clear
5:15 AM 79.5 °F - 70.2 °F 73% 29.89 in 10.0 mi SW 8.1 mph - N/A   Clear
5:35 AM 79.3 °F - 69.8 °F 72% 29.90 in 10.0 mi SW 8.1 mph - N/A   Clear
5:55 AM 79.7 °F - 69.8 °F 72% 29.90 in 10.0 mi SW 10.4 mph - N/A   Clear
6:14 AM 80.1 °F 82.9 °F 69.1 °F 69% 29.91 in 10.0 mi WSW 9.2 mph - N/A   Clear
6:35 AM 80.1 °F 82.9 °F 68.9 °F 69% 29.91 in 10.0 mi WSW 8.1 mph 16.1 mph N/A   Clear
6:55 AM 79.2 °F - 69.4 °F 72% 29.92 in 10.0 mi SW 6.9 mph - N/A Rain Light Rain
7:15 AM 78.6 °F - 69.8 °F 74% 29.92 in 10.0 mi SW 8.1 mph - N/A   Clear
7:35 AM 78.8 °F - 68.9 °F 72% 29.92 in 10.0 mi SW 8.1 mph - N/A   Clear
7:55 AM 78.8 °F - 68.9 °F 72% 29.93 in 10.0 mi SW 5.8 mph - N/A   Clear
8:15 AM 78.8 °F - 68.9 °F 72% 29.93 in 10.0 mi SSW 9.2 mph - N/A   Clear
8:35 AM 79.7 °F - 68.7 °F 69% 29.93 in 10.0 mi SW 11.5 mph 16.1 mph N/A   Clear
8:54 AM 80.2 °F 83.0 °F 68.5 °F 67% 29.94 in 10.0 mi SW 9.2 mph - N/A   Clear
9:15 AM 81.1 °F 84.2 °F 68.7 °F 66% 29.94 in 10.0 mi SW 9.2 mph - N/A   Clear
9:34 AM 82.0 °F 85.1 °F 68.2 °F 63% 29.94 in 10.0 mi SW 9.2 mph 16.1 mph N/A   Clear
9:55 AM 82.9 °F 86.0 °F 68.4 °F 61% 29.94 in 10.0 mi SW 9.2 mph - N/A   Clear
10:15 AM 84.2 °F 87.3 °F 67.8 °F 58% 29.96 in 10.0 mi WSW 9.2 mph - N/A   Clear
10:34 AM 84.9 °F 87.9 °F 67.5 °F 56% 29.96 in 10.0 mi WSW 9.2 mph 17.3 mph N/A   Clear
10:55 AM 85.8 °F 88.5 °F 66.7 °F 53% 29.96 in 10.0 mi SW 9.2 mph 16.1 mph N/A   Clear
11:15 AM 86.5 °F 89.0 °F 66.2 °F 51% 29.96 in 10.0 mi SW 11.5 mph 16.1 mph N/A   Clear
11:35 AM 87.6 °F 90.1 °F 66.6 °F 49% 29.96 in 10.0 mi SW 10.4 mph 17.3 mph N/A   Clear
11:55 AM 88.0 °F 90.7 °F 66.4 °F 49% 29.96 in 10.0 mi SW 10.4 mph - N/A   Clear
12:15 PM 88.7 °F 91.1 °F 65.8 °F 47% 29.96 in 10.0 mi WSW 11.5 mph 17.3 mph N/A   Clear
12:35 PM 89.6 °F 92.2 °F 66.6 °F 46% 29.97 in 10.0 mi WSW 12.7 mph 19.6 mph N/A   Clear
12:55 PM 90.1 °F 93.1 °F 66.9 °F 46% 29.96 in 10.0 mi SW 12.7 mph 16.1 mph N/A   Clear
1:15 PM 90.7 °F 94.1 °F 67.1 °F 46% 29.97 in 10.0 mi SW 8.1 mph - N/A   Clear
1:35 PM 91.4 °F 93.6 °F 65.7 °F 42% 29.96 in 10.0 mi SW 8.1 mph 16.1 mph N/A   Clear
1:55 PM 91.6 °F 93.1 °F 64.4 °F 40% 29.97 in 10.0 mi WSW 13.8 mph 20.7 mph N/A   Clear
2:15 PM 92.1 °F 93.2 °F 63.5 °F 38% 29.97 in 10.0 mi WSW 12.7 mph 18.4 mph N/A   Clear
2:35 PM 92.7 °F 94.0 °F 63.7 °F 38% 29.96 in 10.0 mi WSW 13.8 mph - N/A   Clear
2:55 PM 92.8 °F 93.5 °F 62.1 °F 36% 29.96 in 10.0 mi WSW 12.7 mph 19.6 mph N/A   Clear
3:15 PM 93.4 °F 95.2 °F 64.0 °F 38% 29.96 in 10.0 mi SW 6.9 mph - N/A   Clear
3:35 PM 92.8 °F 93.5 °F 62.2 °F 36% 29.95 in 10.0 mi SW 15.0 mph 20.7 mph N/A   Clear
3:54 PM 92.8 °F 92.8 °F 60.8 °F 34% 29.96 in 10.0 mi SW 11.5 mph 18.4 mph N/A   Clear
4:15 PM 92.5 °F 91.9 °F 59.9 °F 33% 29.96 in 10.0 mi SW 12.7 mph 20.7 mph N/A   Clear
4:35 PM 92.5 °F 91.9 °F 59.7 °F 33% 29.96 in 10.0 mi SW 11.5 mph 19.6 mph N/A   Clear
4:55 PM 91.9 °F 90.8 °F 58.5 °F 32% 29.96 in 10.0 mi SW 13.8 mph 20.7 mph N/A   Clear
5:14 PM 91.8 °F 91.2 °F 59.5 °F 34% 29.96 in 10.0 mi SW 9.2 mph 19.6 mph N/A   Clear
5:35 PM 91.0 °F 90.2 °F 59.0 °F 34% 29.96 in 10.0 mi SW 12.7 mph 17.3 mph N/A   Clear
5:55 PM 90.5 °F 89.3 °F 57.7 °F 33% 29.96 in 10.0 mi SW 10.4 mph 19.6 mph N/A   Clear
6:14 PM 90.0 °F 89.4 °F 59.5 °F 36% 29.96 in 10.0 mi SW 10.4 mph - N/A   Clear
6:35 PM 89.2 °F 88.4 °F 59.4 °F 36% 29.97 in 10.0 mi WSW 9.2 mph - N/A   Clear
6:55 PM 88.3 °F 87.6 °F 59.4 °F 37% 29.97 in 10.0 mi SW 8.1 mph - N/A   Clear
7:15 PM 86.9 °F 86.5 °F 60.1 °F 40% 29.97 in 10.0 mi SW 5.8 mph - N/A   Clear
7:35 PM 85.3 °F 85.4 °F 61.2 °F 44% 29.97 in 10.0 mi SW 5.8 mph - N/A   Clear
7:55 PM 83.5 °F 84.1 °F 61.9 °F 48% 29.97 in 10.0 mi SSW 3.5 mph - N/A   Clear
8:15 PM 81.5 °F 82.7 °F 62.8 °F 53% 29.98 in 10.0 mi SSW 5.8 mph - N/A   Clear
8:35 PM 81.7 °F 82.6 °F 61.9 °F 51% 29.99 in 10.0 mi SSW 5.8 mph - N/A   Clear
8:55 PM 81.1 °F 82.0 °F 61.3 °F 51% 29.99 in 10.0 mi SW 3.5 mph - N/A   Clear
9:15 PM 80.6 °F 81.5 °F 61.2 °F 51% 30.00 in 10.0 mi SSW 3.5 mph - N/A   Clear
9:34 PM 78.8 °F - 61.7 °F 56% 30.01 in 10.0 mi SSW 3.5 mph - N/A   Clear
9:55 PM 78.4 °F - 62.1 °F 57% 30.01 in 10.0 mi SSW 3.5 mph - N/A   Clear
10:15 PM 77.7 °F - 62.2 °F 59% 30.00 in 10.0 mi SSW 3.5 mph - N/A   Clear
10:34 PM 76.6 °F - 62.8 °F 62% 30.00 in 10.0 mi South 3.5 mph - N/A   Clear
10:55 PM 74.1 °F - 64.2 °F 71% 30.00 in 10.0 mi Calm Calm - N/A   Clear
11:15 PM 75.2 °F - 63.7 °F 67% 29.99 in 10.0 mi South 4.6 mph - N/A   Clear
11:34 PM 76.1 °F - 63.5 °F 65% 29.99 in 10.0 mi SSW 4.6 mph - N/A   Clear
11:55 PM 76.1 °F - 63.9 °F 66% 29.99 in 10.0 mi SSW 5.8 mph - N/A   Clear